EW4271 Weather Reports


Display with metric or nautical units.
time (UTC)temp
F
wind
direction
speed
MPH
gust
MPH
rain 1hr
in
rain 24hr
in
rain mn
in
humidity
%
barometer
mb
20260504025624 54 240 0.0 0.0 0.00 0.00 0.00 35 1018.6
20260504025121 54 240 0.0 4.0 0.00 0.00 0.00 29 1018.4
20260504024636 54 240 1.0 4.0 0.00 0.00 0.00 29 1018.3
20260504024132 54 282 0.0 0.0 0.00 0.00 0.00 31 1018.2
20260504023625 54 282 0.0 0.0 0.00 0.00 0.00 31 1018.1
20260504023139 55 282 0.0 1.0 0.00 0.00 0.00 31 1018.1
20260504022634 55 282 0.0 2.0 0.00 0.00 0.00 30 1018.0
20260504022127 56 282 1.0 2.0 0.00 0.00 0.00 29 1018.0
20260504021626 57 282 1.0 2.0 0.00 0.00 0.00 29 1017.9
20260504021139 57 282 1.0 2.0 0.00 0.00 0.00 29 1017.8
20260504020632 58 282 0.0 0.0 0.00 0.00 0.00 29 1017.7
20260504020127 58 282 0.0 0.0 0.00 0.00 0.00 29 1017.8
20260504015640 60 282 0.0 0.0 0.00 0.00 0.00 24 1017.7
20260504015155 60 282 0.0 1.0 0.00 0.00 0.00 26 1017.6
20260504014628 61 282 0.0 2.0 0.00 0.00 0.00 28 1017.5
20260504014122 62 282 0.0 2.0 0.00 0.00 0.00 23 1017.5
20260504013654 62 282 1.0 3.0 0.00 0.00 0.00 22 1017.4
20260504013128 63 243 1.0 3.0 0.00 0.00 0.00 21 1017.4
20260504012625 63 55 0.0 0.0 0.00 0.00 0.00 19 1017.4
20260504012139 63 55 0.0 1.0 0.00 0.00 0.00 20 1017.3
20260504011634 64 340 0.0 4.0 0.00 0.00 0.00 19 1017.4
20260504011128 64 340 1.0 4.0 0.00 0.00 0.00 19 1017.4
20260504010621 64 58 1.0 4.0 0.00 0.00 0.00 20 1017.4
20260504010136 64 40 1.0 4.0 0.00 0.00 0.00 19 1017.3
20260504005629 64 51 2.0 6.0 0.00 0.00 0.00 18 1017.4
20260504005127 65 78 2.0 6.0 0.00 0.00 0.00 19 1017.4
20260504004641 65 23 0.0 3.0 0.00 0.00 0.00 19 1017.5
20260504004154 65 23 0.0 3.0 0.00 0.00 0.00 19 1017.5
20260504003626 65 207 0.0 4.0 0.00 0.00 0.00 18 1017.5
20260504003139 65 360 2.0 4.0 0.00 0.00 0.00 18 1017.5
20260504002653 65 284 0.0 4.0 0.00 0.00 0.00 20 1017.5
20260504002126 65 252 2.0 5.0 0.00 0.00 0.00 19 1017.6
20260504001639 65 289 2.0 6.0 0.00 0.00 0.00 18 1017.5
20260504001131 66 257 3.0 6.0 0.00 0.00 0.00 18 1017.5
20260504000628 66 61 2.0 4.0 0.00 0.00 0.00 22 1017.6
20260504000121 67 46 2.0 4.0 0.00 0.00 0.00 22 1017.6
20260503235632 67 143 1.0 4.0 0.00 0.00 0.00 21 1017.6
20260503235125 66 284 2.0 3.0 0.00 0.00 0.00 22 1017.7
20260503234639 66 278 2.0 3.0 0.00 0.00 0.00 24 1017.7
20260503234132 65 293 1.0 4.0 0.00 0.00 0.00 24 1017.6
20260503233645 65 159 2.0 4.0 0.00 0.00 0.00 23 1017.6
20260503233138 65 348 2.0 5.0 0.00 0.00 0.00 24 1017.7
20260503232651 65 135 2.0 5.0 0.00 0.00 0.00 23 1017.9
20260503232123 65 235 2.0 4.0 0.00 0.00 0.00 24 1017.9
20260503231621 64 338 2.0 3.0 0.00 0.00 0.00 26 1017.9
20260503231133 64 344 2.0 3.0 0.00 0.00 0.00 26 1018.0
20260503230646 64 348 1.0 5.0 0.00 0.00 0.00 25 1018.1
20260503230139 64 325 2.0 5.0 0.00 0.00 0.00 26 1018.2
20260503225632 64 121 1.0 7.0 0.00 0.00 0.00 28 1018.3
20260503225146 63 155 3.0 7.0 0.00 0.00 0.00 27 1018.3
20260503224637 63 97 1.0 6.0 0.00 0.00 0.00 29 1018.5
20260503224130 63 95 2.0 6.0 0.00 0.00 0.00 28 1018.5
20260503223623 63 31 2.0 4.0 0.00 0.00 0.00 28 1018.7
20260503223156 64 88 2.0 6.0 0.00 0.00 0.00 27 1018.8
20260503222633 65 5 1.0 6.0 0.00 0.00 0.00 28 1018.8
20260503222139 65 75 1.0 4.0 0.00 0.00 0.00 28 1018.9
20260503221648 64 132 1.0 5.0 0.00 0.00 0.00 28 1018.9
20260503221159 65 329 2.0 5.0 0.00 0.00 0.00 27 1019.1
20260503220629 65 275 2.0 8.0 0.00 0.00 0.00 28 1019.2
20260503220201 65 128 4.0 8.0 0.00 0.00 0.00 27 1019.2
20260503215629 65 63 2.0 8.0 0.00 0.00 0.00 27 1019.2
20260503215122 66 45 2.0 6.0 0.00 0.00 0.00 27 1019.4
20260503214635 65 248 1.0 9.0 0.00 0.00 0.00 27 1019.4
20260503214148 65 130 4.0 9.0 0.00 0.00 0.00 27 1019.4
20260503213657 65 135 3.0 10.0 0.00 0.00 0.00 27 1019.6
20260503213128 66 336 4.0 10.0 0.00 0.00 0.00 26 1019.7
20260503212638 65 198 1.0 8.0 0.00 0.00 0.00 27 1019.7
20260503212134 66 129 1.0 7.0 0.00 0.00 0.00 26 1019.8
20260503211647 65 333 2.0 7.0 0.00 0.00 0.00 27 1020.0
20260503211139 64 322 2.0 5.0 0.00 0.00 0.00 30 1020.1
20260503210632 64 165 4.0 12.0 0.00 0.00 0.00 26 1020.2
20260503210125 64 78 2.0 10.0 0.00 0.00 0.00 27 1020.2
20260503205639 64 121 2.0 10.0 0.00 0.00 0.00 28 1020.4
20260503205133 64 63 2.0 9.0 0.00 0.00 0.00 29 1020.4
20260503204645 64 191 4.0 9.0 0.00 0.00 0.00 27 1020.7
20260503204138 64 94 3.0 8.0 0.00 0.00 0.00 28 1020.7
20260503203635 63 87 1.0 5.0 0.00 0.00 0.00 28 1020.7
20260503203150 63 342 2.0 8.0 0.00 0.00 0.00 29 1020.9
20260503202644 64 49 2.0 11.0 0.00 0.00 0.00 29 1021.0
20260503202137 64 250 4.0 11.0 0.00 0.00 0.00 27 1021.2
20260503201631 65 324 2.0 8.0 0.00 0.00 0.00 28 1021.3
20260503201125 64 69 3.0 8.0 0.00 0.00 0.00 28 1021.3
20260503200638 65 120 2.0 6.0 0.00 0.00 0.00 27 1021.5
20260503200133 65 132 3.0 8.0 0.00 0.00 0.00 27 1021.3
20260503195647 64 88 3.0 8.0 0.00 0.00 0.00 31 1021.3
20260503195122 63 146 1.0 9.0 0.00 0.00 0.00 31 1021.5
20260503194636 62 293 1.0 9.0 0.00 0.00 0.00 32 1021.6
20260503194130 61 178 3.0 8.0 0.00 0.00 0.00 32 1021.6
20260503193622 61 331 3.0 8.0 0.00 0.00 0.00 32 1021.9
20260503193136 61 182 1.0 7.0 0.00 0.00 0.00 33 1022.0
20260503192630 61 128 3.0 7.0 0.00 0.00 0.00 33 1022.0
20260503192123 61 304 2.0 5.0 0.00 0.00 0.00 34 1022.1
20260503191636 61 148 2.0 9.0 0.00 0.00 0.00 33 1022.2
20260503191149 61 126 2.0 9.0 0.00 0.00 0.00 33 1022.2
20260503190626 62 319 3.0 7.0 0.00 0.00 0.00 34 1022.4
20260503190139 62 153 2.0 7.0 0.00 0.00 0.00 35 1022.6
20260503185633 62 202 1.0 11.0 0.00 0.00 0.00 35 1022.6
20260503185146 63 177 5.0 11.0 0.00 0.00 0.00 34 1022.7
20260503184637 62 278 1.0 8.0 0.00 0.00 0.00 34 1022.7
20260503184131 62 171 2.0 8.0 0.00 0.00 0.00 35 1022.8
20260503183626 61 221 1.0 4.0 0.00 0.00 0.00 37 1023.0
20260503183138 60 107 1.0 8.0 0.00 0.00 0.00 36 1023.1
20260503182631 60 122 3.0 8.0 0.00 0.00 0.00 34 1023.1
20260503182128 61 81 2.0 8.0 0.00 0.00 0.00 34 1023.2
20260503181623 61 89 2.0 8.0 0.00 0.00 0.00 35 1023.4
20260503181137 61 110 2.0 8.0 0.00 0.00 0.00 35 1023.4
20260503180630 61 115 3.0 8.0 0.00 0.00 0.00 36 1023.4
20260503180124 61 144 2.0 6.0 0.00 0.00 0.00 36 1023.5
20260503175658 61 142 3.0 6.0 0.00 0.00 0.00 35 1023.6
20260503175130 61 156 3.0 7.0 0.00 0.00 0.00 35 1023.6
20260503174625 61 182 2.0 7.0 0.00 0.00 0.00 36 1023.7
20260503174143 61 112 2.0 6.0 0.00 0.00 0.00 39 1023.7
20260503173636 60 279 2.0 7.0 0.00 0.00 0.00 36 1023.7
20260503173129 60 123 2.0 5.0 0.00 0.00 0.00 38 1024.0
20260503172643 60 96 2.0 7.0 0.00 0.00 0.00 41 1024.1
20260503172136 60 284 0.0 7.0 0.00 0.00 0.00 40 1024.1
20260503171630 59 145 2.0 5.0 0.00 0.00 0.00 41 1024.3
20260503171125 58 121 2.0 7.0 0.00 0.00 0.00 41 1024.1
20260503170639 58 167 5.0 7.0 0.00 0.00 0.00 41 1024.2
20260503170134 58 54 3.0 5.0 0.00 0.00 0.00 42 1024.1
20260503160126 54 62 1.0 5.0 0.00 0.01 0.00 47 1024.6
20260503150629 51 150 2.0 4.0 0.00 0.01 0.00 52 1025.0
20260503150124 51 102 1.0 5.0 0.00 0.01 0.00 56 1025.1
20260503140126 42 189 0.0 0.0 0.00 0.01 0.00 84 1025.0
20260503131124 33 302 0.0 0.0 0.00 0.01 0.00 87 1025.3
20260503130640 33 302 0.0 0.0 0.00 0.01 0.00 87 1025.2
20260503130155 33 302 0.0 0.0 0.00 0.01 0.00 87 1025.3
20260503120126 33 302 0.0 0.0 0.00 0.01 0.00 84 1024.8
20260503110640 34 302 0.0 0.0 0.00 0.01 0.00 82 1024.7
20260503110140 34 302 0.0 0.0 0.00 0.01 0.00 82 1024.6
20260503100125 35 360 0.0 0.0 0.00 0.01 0.00 81 1024.8
20260503090127 37 360 0.0 0.0 0.00 0.01 0.00 77 1024.8
20260503081630 39 360 0.0 0.0 0.00 0.01 0.00 75 1024.8
20260503081130 39 360 0.0 0.0 0.00 0.01 0.00 75 1024.9
20260503080625 39 360 0.0 0.0 0.00 0.01 0.00 75 1024.9
20260503080141 39 360 0.0 0.0 0.00 0.01 0.00 74 1024.8
20260503072631 41 308 0.0 0.0 0.00 0.01 0.00 71 1025.1
20260503072148 41 308 0.0 0.0 0.00 0.01 0.00 71 1025.2
20260503071623 41 308 0.0 0.0 0.00 0.01 0.00 71 1025.2
20260503071137 41 308 0.0 0.0 0.00 0.01 0.00 71 1025.2
20260503070634 41 308 0.0 0.0 0.00 0.01 0.00 70 1025.2
20260503070128 42 308 0.0 0.0 0.00 0.01 0.00 69 1025.3
20260503060138 42 282 0.0 0.0 0.00 0.01 0.00 67 1025.1
20260503054623 42 282 0.0 0.0 0.00 0.01 0.01 65 1025.0
20260503054159 42 282 0.0 0.0 0.00 0.01 0.01 64 1024.9
20260503053635 42 282 0.0 0.0 0.00 0.01 0.01 63 1025.0
20260503053130 42 281 0.0 0.0 0.00 0.01 0.01 62 1025.0
20260503052629 43 281 0.0 0.0 0.00 0.01 0.01 63 1025.1
20260503052125 43 281 0.0 0.0 0.00 0.01 0.01 62 1025.0
20260503051640 43 280 0.0 0.0 0.00 0.01 0.01 60 1025.0
20260503051136 43 280 0.0 0.0 0.00 0.01 0.01 61 1025.0
20260503050631 44 280 0.0 0.0 0.00 0.01 0.01 60 1025.0
20260503050127 44 277 0.0 0.0 0.00 0.01 0.01 59 1025.0
20260503045621 44 277 0.0 0.0 0.00 0.01 0.01 57 1025.0
20260503045121 45 258 0.0 0.0 0.00 0.01 0.01 57 1025.0
20260503044636 45 258 0.0 0.0 0.00 0.01 0.01 57 1025.0
20260503044132 45 258 0.0 0.0 0.00 0.01 0.01 55 1025.0
20260503043628 45 258 0.0 0.0 0.00 0.01 0.01 54 1024.9
20260503043143 46 258 0.0 0.0 0.00 0.01 0.01 56 1024.8
20260503042637 45 258 0.0 0.0 0.00 0.01 0.01 55 1024.8
20260503042152 44 196 0.0 0.0 0.00 0.01 0.01 56 1024.7
20260503041627 44 340 0.0 0.0 0.00 0.01 0.01 62 1024.7
20260503041126 43 202 0.0 0.0 0.00 0.01 0.01 63 1024.5
20260503040642 43 263 0.0 0.0 0.00 0.01 0.01 63 1024.5
20260503040136 43 263 0.0 0.0 0.00 0.01 0.01 63 1024.4
20260503035629 43 263 0.0 0.0 0.00 0.01 0.01 63 1024.4
20260503035126 43 263 0.0 0.0 0.00 0.01 0.01 62 1024.3
20260503034641 43 263 0.0 0.0 0.00 0.01 0.01 61 1024.4
20260503034136 44 263 0.0 0.0 0.00 0.01 0.01 57 1024.4
20260503033631 44 263 0.0 0.0 0.00 0.01 0.01 59 1024.3
20260503033131 44 263 0.0 0.0 0.00 0.01 0.01 59 1024.3
20260503032627 45 263 0.0 0.0 0.00 0.01 0.01 58 1024.3
20260503032142 45 263 0.0 0.0 0.00 0.01 0.01 55 1024.2
20260503031656 45 263 0.0 0.0 0.00 0.01 0.01 56 1024.3
20260503031128 46 263 0.0 0.0 0.00 0.01 0.01 56 1024.1
20260503030623 46 263 0.0 0.0 0.00 0.01 0.01 56 1024.0
20260503030138 46 263 0.0 0.0 0.00 0.01 0.01 52 1023.9